| time (UTC) | temp F | wind direction | speed MPH | gust MPH | rain 1hr in | rain 24hr in | rain mn in | humidity % | barometer mb |
| 20260902063011 | 83 | 330 | 7.0 | 0.0 | 0.00 | 0.00 | 0.00 | 13 | 1009.1 |
| 20260902061511 | 83 | 303 | 7.0 | 0.0 | 0.00 | 0.00 | 0.00 | 13 | 1008.9 |
| 20260902060010 | 84 | 249 | 10.0 | 0.0 | 0.00 | 0.00 | 0.00 | 13 | 1008.9 |
| 20260902054509 | 84 | 235 | 14.0 | 0.0 | 0.00 | 0.00 | 0.00 | 14 | 1008.6 |
| 20260902053010 | 84 | 246 | 14.0 | 0.0 | 0.00 | 0.00 | 0.00 | 14 | 1008.9 |
| 20260902051512 | 84 | 248 | 15.0 | 0.0 | 0.00 | 0.00 | 0.00 | 15 | 1008.9 |
| 20260902050008 | 84 | 267 | 14.0 | 0.0 | 0.00 | 0.00 | 0.00 | 15 | 1009.0 |
| 20260902044507 | 84 | 275 | 14.0 | 0.0 | 0.00 | 0.00 | 0.00 | 16 | 1008.9 |
| 20260902043007 | 84 | 254 | 15.0 | 0.0 | 0.00 | 0.00 | 0.00 | 17 | 1008.8 |
| 20260902041506 | 84 | 260 | 13.0 | 0.0 | 0.00 | 0.00 | 0.00 | 18 | 1008.8 |
| 20260902040003 | 84 | 267 | 13.0 | 0.0 | 0.00 | 0.00 | 0.00 | 17 | 1008.6 |
| 20260902034502 | 85 | 264 | 14.0 | 0.0 | 0.00 | 0.00 | 0.00 | 18 | 1008.5 |
| 20260902033002 | 85 | 292 | 13.0 | 0.0 | 0.00 | 0.00 | 0.00 | 20 | 1008.3 |
| 20260902031501 | 85 | 285 | 12.0 | 0.0 | 0.00 | 0.00 | 0.00 | 21 | 1008.1 |
| 20260902030106 | 85 | 291 | 12.0 | 0.0 | 0.00 | 0.00 | 0.00 | 22 | 1007.8 |
| 20260902024601 | 86 | 258 | 12.0 | 0.0 | 0.00 | 0.00 | 0.00 | 22 | 1007.6 |
| 20260902021559 | 88 | 298 | 12.0 | 0.0 | 0.00 | 0.00 | 0.00 | 24 | 1007.1 |
| 20260902020104 | 88 | 304 | 15.0 | 0.0 | 0.00 | 0.00 | 0.00 | 24 | 1007.0 |
| 20260902014558 | 89 | 265 | 16.0 | 0.0 | 0.00 | 0.00 | 0.00 | 24 | 1006.8 |
| 20260902013058 | 91 | 308 | 15.0 | 0.0 | 0.00 | 0.00 | 0.00 | 22 | 1006.6 |
| 20260902011557 | 92 | 296 | 15.0 | 0.0 | 0.00 | 0.00 | 0.00 | 20 | 1006.6 |
| 20260902010106 | 93 | 321 | 15.0 | 0.0 | 0.00 | 0.00 | 0.00 | 19 | 1006.4 |
| 20260902004556 | 95 | 297 | 15.0 | 0.0 | 0.00 | 0.00 | 0.00 | 16 | 1006.5 |
| 20260902003055 | 96 | 314 | 13.0 | 0.0 | 0.00 | 0.00 | 0.00 | 15 | 1006.4 |
| 20260902001605 | 96 | 304 | 12.0 | 0.0 | 0.00 | 0.00 | 0.00 | 18 | 1006.4 |
| 20260902000054 | 97 | 254 | 13.0 | 0.0 | 0.00 | 0.00 | 0.00 | 15 | 1006.4 |
| 20260901234553 | 98 | 266 | 13.0 | 0.0 | 0.00 | 0.00 | 0.00 | 14 | 1006.5 |
| 20260901233056 | 99 | 298 | 8.0 | 0.0 | 0.00 | 0.00 | 0.00 | 13 | 1006.5 |
| 20260901231551 | 100 | 244 | 8.0 | 0.0 | 0.00 | 0.00 | 0.00 | 11 | 1006.6 |
| 20260901231514 | 99 | 217 | 8.0 | 0.0 | 0.00 | 0.00 | 0.00 | 12 | 1006.6 |
| 20260901230052 | 100 | 215 | 14.0 | 0.0 | 0.00 | 0.00 | 0.00 | 12 | 1006.5 |
| 20260901224556 | 101 | 216 | 7.0 | 0.0 | 0.00 | 0.00 | 0.00 | 12 | 1006.3 |
| 20260901223051 | 100 | 53 | 5.0 | 0.0 | 0.00 | 0.00 | 0.00 | 13 | 1006.4 |
| 20260901221646 | 100 | 38 | 6.0 | 0.0 | 0.00 | 0.00 | 0.00 | 13 | 1006.5 |
| 20260901220043 | 98 | 157 | 4.0 | 0.0 | 0.00 | 0.00 | 0.00 | 14 | 1006.6 |
| 20260901214555 | 99 | 236 | 3.0 | 0.0 | 0.00 | 0.00 | 0.00 | 14 | 1007.0 |
| 20260901213039 | 99 | 356 | 5.0 | 0.0 | 0.00 | 0.00 | 0.00 | 13 | 1007.2 |
| 20260901211538 | 99 | 225 | 3.0 | 0.0 | 0.00 | 0.00 | 0.00 | 13 | 1007.3 |
| 20260901210037 | 99 | 358 | 4.0 | 0.0 | 0.00 | 0.00 | 0.00 | 13 | 1007.7 |
| 20260901204538 | 99 | 275 | 5.0 | 0.0 | 0.00 | 0.00 | 0.00 | 13 | 1007.8 |
| 20260901203058 | 99 | 340 | 4.0 | 0.0 | 0.00 | 0.00 | 0.00 | 13 | 1007.9 |
| 20260901201531 | 98 | 285 | 3.0 | 0.0 | 0.00 | 0.00 | 0.00 | 13 | 1008.1 |
| 20260901200101 | 97 | 27 | 4.0 | 0.0 | 0.00 | 0.00 | 0.00 | 13 | 1008.4 |
| 20260901194527 | 96 | 17 | 4.0 | 0.0 | 0.00 | 0.00 | 0.00 | 13 | 1008.5 |
| 20260901193027 | 96 | 340 | 3.0 | 0.0 | 0.00 | 0.00 | 0.00 | 14 | 1008.8 |
| 20260901191535 | 95 | 50 | 4.0 | 0.0 | 0.00 | 0.00 | 0.00 | 14 | 1009.0 |
| 20260901190025 | 95 | 3 | 6.0 | 0.0 | 0.00 | 0.00 | 0.00 | 14 | 1009.2 |
| 20260901184523 | 94 | 66 | 2.0 | 0.0 | 0.00 | 0.00 | 0.00 | 15 | 1009.4 |
| 20260901183029 | 93 | 42 | 5.0 | 0.0 | 0.00 | 0.00 | 0.00 | 16 | 1009.5 |
| 20260901181519 | 93 | 13 | 4.0 | 0.0 | 0.00 | 0.00 | 0.00 | 16 | 1009.6 |
| 20260901180018 | 93 | 252 | 3.0 | 0.0 | 0.00 | 0.00 | 0.00 | 16 | 1009.7 |
| 20260901174517 | 92 | 310 | 2.0 | 0.0 | 0.00 | 0.00 | 0.00 | 15 | 1009.8 |
| 20260901171502 | 91 | 342 | 3.0 | 0.0 | 0.00 | 0.00 | 0.00 | 16 | 1009.8 |
| 20260901170002 | 90 | 16 | 3.0 | 0.0 | 0.00 | 0.00 | 0.00 | 15 | 1009.7 |
| 20260901164558 | 90 | 6 | 2.0 | 0.0 | 0.00 | 0.00 | 0.00 | 14 | 1009.7 |
| 20260901163101 | 90 | 56 | 1.0 | 0.0 | 0.00 | 0.00 | 0.00 | 13 | 1009.6 |
| 20260901161614 | 89 | 86 | 1.0 | 0.0 | 0.00 | 0.00 | 0.00 | 13 | 1009.4 |
| 20260901160054 | 89 | 92 | 1.0 | 0.0 | 0.00 | 0.00 | 0.00 | 12 | 1009.4 |
| 20260901154613 | 87 | 300 | 2.0 | 0.0 | 0.00 | 0.00 | 0.00 | 12 | 1009.4 |
| 20260901153015 | 86 | 211 | 1.0 | 0.0 | 0.00 | 0.00 | 0.00 | 13 | 1009.4 |
| 20260901151542 | 84 | 211 | 1.0 | 0.0 | 0.00 | 0.00 | 0.00 | 15 | 1009.4 |
| 20260901150051 | 82 | 211 | 2.0 | 0.0 | 0.00 | 0.00 | 0.00 | 17 | 1009.3 |
| 20260901144543 | 80 | 211 | 1.0 | 0.0 | 0.00 | 0.00 | 0.00 | 19 | 1009.2 |
| 20260901143040 | 80 | 211 | 1.0 | 0.0 | 0.00 | 0.00 | 0.00 | 20 | 1009.2 |
| 20260901141546 | 79 | 211 | 2.0 | 0.0 | 0.00 | 0.00 | 0.00 | 20 | 1009.0 |
| 20260901140040 | 78 | 197 | 1.0 | 0.0 | 0.00 | 0.00 | 0.00 | 21 | 1009.0 |
| 20260901134535 | 78 | 200 | 4.0 | 0.0 | 0.00 | 0.00 | 0.00 | 21 | 1008.9 |
| 20260901133033 | 77 | 207 | 4.0 | 0.0 | 0.00 | 0.00 | 0.00 | 22 | 1008.7 |
| 20260901131532 | 77 | 196 | 2.0 | 0.0 | 0.00 | 0.00 | 0.00 | 23 | 1008.5 |
| 20260901130032 | 77 | 196 | 2.0 | 0.0 | 0.00 | 0.00 | 0.00 | 24 | 1008.6 |
| 20260901124538 | 77 | 196 | 2.0 | 0.0 | 0.00 | 0.00 | 0.00 | 24 | 1008.7 |
| 20260901123026 | 77 | 196 | 2.0 | 0.0 | 0.00 | 0.00 | 0.00 | 24 | 1008.3 |
| 20260901121525 | 78 | 196 | 1.0 | 0.0 | 0.00 | 0.00 | 0.00 | 24 | 1008.3 |
| 20260901120022 | 79 | 196 | 1.0 | 0.0 | 0.00 | 0.00 | 0.00 | 23 | 1008.2 |
| 20260901114521 | 79 | 183 | 2.0 | 0.0 | 0.00 | 0.00 | 0.00 | 22 | 1008.1 |
| 20260901113021 | 78 | 206 | 2.0 | 0.0 | 0.00 | 0.00 | 0.00 | 23 | 1007.9 |
| 20260901111518 | 80 | 206 | 2.0 | 0.0 | 0.00 | 0.00 | 0.00 | 22 | 1007.9 |
| 20260901110016 | 81 | 206 | 3.0 | 0.0 | 0.00 | 0.00 | 0.00 | 21 | 1007.9 |
| 20260901104515 | 81 | 289 | 0.0 | 0.0 | 0.00 | 0.00 | 0.00 | 18 | 1007.8 |
| 20260901103014 | 81 | 286 | 3.0 | 0.0 | 0.00 | 0.00 | 0.00 | 17 | 1007.9 |
| 20260901101511 | 82 | 332 | 2.0 | 0.0 | 0.00 | 0.00 | 0.00 | 17 | 1007.9 |
| 20260901100010 | 83 | 285 | 3.0 | 0.0 | 0.00 | 0.00 | 0.00 | 17 | 1008.1 |
| 20260901094516 | 83 | 309 | 3.0 | 0.0 | 0.00 | 0.00 | 0.00 | 16 | 1008.1 |
| 20260901093006 | 83 | 292 | 2.0 | 0.0 | 0.00 | 0.00 | 0.00 | 20 | 1008.1 |
| 20260901091506 | 83 | 337 | 2.0 | 0.0 | 0.00 | 0.00 | 0.00 | 23 | 1007.9 |
| 20260901090006 | 84 | 210 | 4.0 | 0.0 | 0.00 | 0.00 | 0.00 | 26 | 1007.7 |
| 20260901084502 | 85 | 298 | 12.0 | 0.0 | 0.00 | 0.00 | 0.00 | 21 | 1007.6 |
| 20260901083106 | 85 | 284 | 12.0 | 0.0 | 0.00 | 0.00 | 0.00 | 23 | 1007.6 |
| 20260901081558 | 85 | 310 | 7.0 | 0.0 | 0.00 | 0.00 | 0.00 | 26 | 1007.6 |
| 20260901074555 | 85 | 304 | 7.0 | 0.0 | 0.00 | 0.00 | 0.00 | 30 | 1007.6 |
| 20260901073052 | 84 | 275 | 3.0 | 0.0 | 0.00 | 0.00 | 0.00 | 29 | 1007.6 |
| 20260901071550 | 84 | 188 | 2.0 | 0.0 | 0.00 | 0.00 | 0.00 | 29 | 1007.5 |
| 20260901070050 | 84 | 242 | 2.0 | 0.0 | 0.00 | 0.00 | 0.00 | 28 | 1007.4 |
| 20260901064550 | 83 | 65 | 1.0 | 0.0 | 0.00 | 0.00 | 0.00 | 29 | 1007.4 |